IRIDIUM 107

Last updated on Tue Sep 22 2026 00:03:21 GMT+0000 (Coordinated Universal Time)

1 42960U 17061F 26264.49605057 .00000112 00000+0 33024-4 0 9991 2 42960 86.4024 345.0310 0002160 89.1175 271.0268 14.34217754468623
UTC large
Height (km)
Speed (km/s)
/
Latitude / Longitude
Inclination (degrees)
Orbital Period (minutes)
Azimuth
Elevation
Range (km)
Doppler Factor

Next 0 passes for location: London (51.5072 / 0.1276)

No passes found over London.
IRIDIUM 107